Regional Weather Roundup
Issued by NWS

Home | Current Version | Previous Version | Text Only | Print | Product List | Glossary On
Versions: 1 2 3 4 5 6 7 8 9 10 11 12 13 14 15 16 17 18 19 20 21 22 23 24 25 26 27 28 29 30 31 32 33 34 35 36 37 38 39 40 41 42 43 44 45 46 47 48 49 50
000
ASUS43 KDTX 282210
RWRMI
MICHIGAN HOURLY REGIONAL WEATHER ROUNDUP
NATIONAL WEATHER SERVICE DETROIT/PONTIAC MI
600 PM EDT TUE MAR 28 2017

NOTE: "FAIR" INDICATES FEW OR NO CLOUDS BELOW 12,000 FEET WITH NO
SIGNIFICANT WEATHER AND/OR OBSTRUCTION TO VISIBILITY.

MIZ047>049-052>055-059>063-066>070-074>076-081>083-282300-
SOUTHEAST LOWER MICHIGAN

CITY           SKY/WX    TMP DP  RH WIND       PRES   REMARKS
ADRIAN         CLOUDY    46  40  79 N8        30.11R
ALMA           SUNNY     51  39  63 NE7       30.14R
ANN ARBOR      CLOUDY    46  39  76 NW9       30.11R
BAD AXE        SUNNY     42  32  69 N13       30.15S
CARO           SUNNY     45  37  74 N9        30.14R
DETROIT CITY   PTSUNNY   51  37  58 NE14G21   30.10R
DETROIT        CLOUDY    49  38  65 N10       30.11R
FLINT          SUNNY     47  35  63 N15       30.14R
GROSSE ILE     CLOUDY    49  38  66 N8        30.09R
HILLSDALE      CLOUDY    43  37  81 N6        30.10R
HOWELL         PTSUNNY   45  35  68 N9        30.12R

CITY           SKY/WX    TMP DP  RH WIND       PRES   REMARKS
JACKSON        CLOUDY    45  37  73 N10       30.12R
LAMBERTVILLE   CLOUDY    49  40  70 NW6       30.10R
LANSING        SUNNY     49  35  58 NE12G17   30.13S
LAPEER         FAIR      47  36  63 N10G21    30.12R
MASON          MOSUNNY   47  37  69 NE6       30.12S
MONROE         CLOUDY    48  41  75 N10       30.09S
MT. CLEMENS    MOSUNNY   49  39  67 N16G22    30.09R
PONTIAC        MOSUNNY   50  35  56 N13       30.09S
PORT HOPE        N/A     39  34  82 N5        30.15R
PORT HURON     SUNNY     41  32  70 N12       30.13R
TRI CITIES     SUNNY     46  38  73 NE10      30.15R
MIDLAND        FAIR      48  37  64 E12       30.14R
TROY           SUNNY     51  35  53 N10       30.11S
SAGINAW HB     SUNNY     45  34  65 NE9       30.15R
$$
MIZ043>046-050>051-056>058-064>065-071>073-077>080-282300-
SOUTHWEST LOWER MICHIGAN

CITY           SKY/WX    TMP DP  RH WIND       PRES   REMARKS
BATTLE CREEK   CLOUDY    46  39  76 NE9       30.13R
BENTON HARBOR  CLOUDY    41  36  82 N8        30.14R
BIG RAPIDS     SUNNY     56  27  33 E8        30.11R
COLDWATER      CLOUDY    46  40  78 N8        30.11R
FREMONT        FAIR      56  34  44 CALM      30.12R
HOLLAND        PTSUNNY   49  40  71 W6        30.14R
GRAND RAPIDS   MOSUNNY   51  39  63 NE8       30.13S
IONIA          FAIR      48  35  61 N3        30.12S
KALAMAZOO      CLOUDY    48  38  68 N7        30.13R
LUDINGTON      SUNNY     46  38  73 NW10      30.15R
MARSHALL       CLOUDY    45  39  79 NE3       30.12R
MOUNT PLEASANT SUNNY     54  34  46 N7        30.12R
MUSKEGON       MOSUNNY   47  37  68 W9        30.15R
SOUTH HAVEN    CLOUDY    42  38  85 N8        30.14S
$$
MIZ016>042-282300-
NORTHERN LOWER MICHIGAN

CITY           SKY/WX    TMP DP  RH WIND       PRES   REMARKS
ALPENA         SUNNY     50  31  48 N6        30.16S
BEAVER ISLAND  SUNNY     46  35  66 W7        30.19R
BELLAIRE       SUNNY     50  35  57 W7        30.17R
CADILLAC       SUNNY     54  36  50 N7        30.12R
CHARLEVOIX     FOG       35  35 100 NW5       30.22S VSB 1/2 WCI  31
FRANKFORT      SUNNY     40  34  78 N8        30.18R WCI  35
GAYLORD        SUNNY     53  29  39 NE7       30.14R
GRAYLING       SUNNY     52  30  43 NE6       30.14R
HARBOR SPRINGS FOG       32  32  99 SW6       30.19R VSB 1/2 WCI  26
HOUGHTON LAKE  SUNNY     56  32  40 NE5       30.12R
MANISTEE       SUNNY     44  37  76 NW12      30.15S
OSCODA         SUNNY     44  32  61 NE9       30.15R
PELLSTON       SUNNY     53  28  38 N7        30.18R
ROGERS CITY    SUNNY     46  31  55 N6        30.18R
TRAVERSE CITY  MOSUNNY   40  35  83 NE8       30.18R WCI  34
$$
MIZ007>008-015-282300-
EASTERN UPPER MICHIGAN

CITY           SKY/WX    TMP DP  RH WIND       PRES   REMARKS
KINROSS        SUNNY     47  27  45 N9        30.17S
MACKINAC ISLAN SUNNY     45  30  55 W6        30.17S
NEWBERRY       SUNNY     49  30  49 N9        30.16S
S. S. MARIE    SUNNY     48  28  46 NW9       30.17R
MUNISING         N/A     39  31  72 NE7       30.19S WCI  34
$$
MIZ004>006-011>014-085-282300-
CENTRAL UPPER MICHIGAN

CITY           SKY/WX    TMP DP  RH WIND       PRES   REMARKS
MANISTIQUE     SUNNY     37  35  93 S5        30.18S WCI  33
ESCANABA       SUNNY     41  32  70 S6        30.18S
MENOMINEE        N/A    N/A N/A N/A MISG        N/A
SAWYER-GWINN   SUNNY     46  32  57 N10       30.18R
$$
MIZ001>003-009>011-084-282300-
WESTERN UPPER MICHIGAN

CITY           SKY/WX    TMP DP  RH WIND       PRES   REMARKS
IRON MOUNTAIN  SUNNY     58  27  30 NW8       30.13S
HOUGHTON       SUNNY     47  31  53 N7        30.18S
COPPER HARBOR    N/A     38  33  82 CALM      30.21R
IRONWOOD       SUNNY     56  27  32 NE6       30.17R
$$

ABBREVIATIONS USED IN REMARKS
   TC - TEMPERATURE IN CELSIUS
  WCI - WIND CHILL INDEX
   HX - HEAT INDEX
  VSB - VISIBILITY




USA.gov is the U.S. government's official web portal to all federal, state and local government web resources and services.